EW8784 Weather Reports


time (UTC)temp
C
wind
direction
speed
KPH
gust
KPH
rain 1hr
cm
rain 24hr
cm
rain mn
cm
humidity
%
barometer
mb
20260906063004 20 87 12.9 24.1 0.00 0.20 0.13 100 1013.9
20260906061503 20 11 9.7 16.1 0.00 0.20 0.13 100 1014.0
20260906060006 20 45 9.7 17.7 0.00 0.20 0.13 100 1014.4
20260906054504 20 15 11.3 17.7 0.00 0.20 0.13 100 1014.8
20260906053007 20 17 8.0 12.9 0.00 0.20 0.13 100 1015.3
20260906051504 20 60 12.9 19.3 0.00 0.20 0.13 100 1015.2
20260906044504 20 44 11.3 17.7 0.00 0.20 0.13 100 1015.0
20260906043008 20 120 9.7 17.7 0.00 0.20 0.13 100 1014.9
20260906041518 20 28 16.1 24.1 0.00 0.20 0.13 100 1015.1
20260906040003 20 34 12.9 24.1 0.00 0.20 0.13 100 1015.3
20260906034507 20 30 14.5 24.1 0.00 0.20 0.13 100 1015.0
20260906033005 19 34 12.9 22.5 0.00 0.23 0.13 100 1015.6
20260906031503 20 70 16.1 25.7 0.00 0.23 0.13 100 1015.5
20260906030006 20 349 12.9 19.3 0.00 0.23 0.13 100 1015.9
20260906023006 19 94 12.9 19.3 0.00 0.23 0.13 100 1016.3
20260906020006 20 14 14.5 27.4 0.00 0.23 0.13 100 1016.9
20260906014504 20 120 11.3 17.7 0.00 0.23 0.13 100 1017.2
20260906011504 20 37 9.7 24.1 0.00 0.23 0.13 100 1017.1
20260906010002 20 84 8.0 14.5 0.00 0.23 0.13 100 1016.8
20260906004506 19 32 12.9 29.0 0.00 0.23 0.13 100 1016.8
20260906001501 20 73 12.9 27.4 0.00 0.23 0.13 100 1016.8
20260906000005 19 46 14.5 22.5 0.00 0.23 0.13 100 1016.7
20260905233005 20 46 11.3 22.5 0.00 0.23 0.13 100 1017.1
20260905230006 20 98 11.3 19.3 0.00 0.23 0.13 100 1017.3
20260905224503 20 15 14.5 22.5 0.00 0.23 0.13 100 1017.4
20260905223006 20 10 12.9 19.3 0.00 0.23 0.13 100 1017.3
20260905221504 20 91 9.7 16.1 0.00 0.23 0.13 100 1017.2
20260905220007 20 39 9.7 19.3 0.00 0.23 0.13 100 1016.9
20260905214504 20 14 12.9 20.9 0.00 0.23 0.13 100 1016.7
20260905213002 20 21 11.3 19.3 0.00 0.20 0.10 100 1016.9
20260905211505 20 105 9.7 14.5 0.00 0.18 0.08 100 1017.0
20260905210003 20 105 14.5 27.4 0.00 0.18 0.08 100 1017.0
20260905204505 20 100 11.3 19.3 0.00 0.18 0.08 100 1016.8
20260905203001 20 84 12.9 29.0 0.00 0.18 0.08 100 1016.8
20260905201505 20 359 11.3 24.1 0.00 0.18 0.08 100 1016.7
20260905194505 21 75 12.9 20.9 0.00 0.18 0.08 100 1016.4
20260905193003 21 23 9.7 17.7 0.00 0.18 0.08 100 1016.4
20260905191506 21 96 8.0 14.5 0.00 0.18 0.08 100 1016.2
20260905190004 21 79 14.5 24.1 0.00 0.15 0.05 100 1016.3
20260905184503 22 359 11.3 24.1 0.00 0.15 0.05 100 1016.2
20260905183006 22 359 11.3 17.7 0.00 0.15 0.05 100 1016.3
20260905180007 22 51 8.0 14.5 0.00 0.15 0.05 100 1016.5
20260905174505 22 89 11.3 16.1 0.00 0.15 0.05 100 1016.2
20260905173008 22 32 19.3 30.6 0.00 0.15 0.05 100 1016.4
20260905171505 22 70 12.9 17.7 0.00 0.15 0.05 100 1016.4
20260905170003 22 94 11.3 24.1 0.00 0.15 0.05 100 1016.3
20260905164506 22 94 8.0 14.5 0.00 0.15 0.05 100 1016.3
20260905163003 22 117 6.4 12.9 0.00 0.15 0.05 100 1016.2
20260905161508 22 101 9.7 12.9 0.00 0.13 0.03 100 1016.3
20260905160005 22 136 8.0 14.5 0.00 0.10 0.00 100 1016.4
20260905154503 22 89 9.7 14.5 0.00 0.10 0.00 100 1016.4
20260905153039 22 38 8.0 12.9 0.00 0.10 0.00 100 1016.4
20260905151503 22 128 8.0 14.5 0.00 0.10 0.00 100 1016.5
20260905150007 22 127 9.7 16.1 0.00 0.10 0.00 100 1016.6
20260905144504 22 59 8.0 14.5 0.00 0.10 0.10 100 1016.6
20260905140007 22 30 8.0 12.9 0.00 0.10 0.10 100 1016.8
20260905134504 22 62 4.8 8.0 0.00 0.10 0.10 100 1016.7
20260905133007 22 138 4.8 11.3 0.00 0.10 0.10 100 1016.9
20260905131504 22 80 6.4 14.5 0.00 0.10 0.10 100 1016.9
20260905130002 22 103 9.7 16.1 0.00 0.10 0.10 100 1016.9
20260905124505 22 359 11.3 17.7 0.00 0.10 0.10 100 1016.9
20260905123008 22 44 8.0 14.5 0.00 0.10 0.10 100 1016.9
20260905121505 22 108 9.7 16.1 0.00 0.10 0.10 100 1017.0
20260905120007 22 34 6.4 8.0 0.00 0.05 0.05 100 1016.9
20260905114503 22 125 6.4 11.3 0.00 0.05 0.05 100 1016.7
20260905113006 22 101 6.4 12.9 0.00 0.05 0.05 100 1016.6
20260905111507 22 149 8.0 16.1 0.00 0.05 0.05 100 1016.4
20260905110008 23 122 8.0 12.9 0.00 0.05 0.05 100 1016.3
20260905104503 23 98 4.8 12.9 0.00 0.05 0.05 100 1016.2
20260905103005 23 45 4.8 12.9 0.00 0.05 0.05 100 1016.1
20260905101507 23 167 4.8 16.1 0.00 0.05 0.05 100 1015.8
20260905100008 23 101 8.0 14.5 0.00 0.05 0.05 100 1015.6
20260905094504 23 121 3.2 4.8 0.00 0.05 0.05 100 1015.4
20260905093007 23 98 4.8 8.0 0.00 0.05 0.05 100 1015.4
20260905090002 24 104 3.2 9.7 0.00 0.03 0.03 100 1015.0
20260905084504 24 110 3.2 4.8 0.00 0.03 0.03 100 1014.9
20260905083007 24 134 4.8 9.7 0.00 0.03 0.03 100 1014.8
20260905081505 24 152 6.4 12.9 0.00 0.03 0.03 100 1014.7
20260905074512 25 135 3.2 6.4 0.00 0.03 0.03 100 1014.7
20260905073007 25 53 3.2 4.8 0.00 0.03 0.03 100 1014.4
20260905071507 25 132 3.2 6.4 0.00 0.03 0.03 100 1014.3
20260905064506 25 138 4.8 11.3 0.00 0.03 0.03 100 1014.2